Location: Old Broadwell Mill Observatory
(33.8015°N, 85.8137°W)
Time: 00:21:16
(UTC-05:00)

Daily predictions for brighter satellites

Satellite Brightness Start Highest point End
(mag) Time Altitude Azimuth Time Altitude Azimuth Time Altitude Azimuth
CZ-4C R/B 4.1 03:17:36 34° ESE 03:17:36 34° ESE 03:21:54 10° SE
Cosmos 2344 4.0 03:16:41 57° NE 03:16:41 57° NE 03:23:07 10° NNE
Cosmos 2227 Rocket 4.1 03:21:35 25° E 03:21:35 25° E 03:24:56 10° NE
Lacrosse 5 4.2 03:29:39 21° ENE 03:29:39 21° ENE 03:31:28 10° NE
Cosmos 2297 Rocket 4.1 03:29:49 23° ESE 03:29:54 23° E 03:34:12 10° NE
Cosmos 2219 Rocket 3.8 03:26:41 10° N 03:31:39 30° ENE 03:36:35 10° ESE
CZ-2D R/B 4.5 03:28:22 10° NNE 03:29:18 16° N 03:29:18 16° N
Okean O Rocket 4.2 03:37:07 10° NE 03:38:32 18° NE 03:38:32 18° NE
NOSS 3-4 (A) 4.1 03:43:36 54° ENE 03:43:36 54° ENE 03:48:47 10° NE
NOSS 3-4 (C) 4.1 03:43:40 54° ENE 03:43:40 54° ENE 03:48:53 10° NE
Lacrosse 5 rocket 4.4 03:57:30 10° N 03:57:30 10° N 03:57:37 10° N
Cosmos 2082 4.2 03:59:49 55° E 03:59:49 55° E 04:04:46 10° NNE
Resurs 1-4 Rocket 4.2 03:57:54 10° N 03:59:04 16° N 03:59:04 16° N
Meteor 2-8 Rocket 4.4 04:05:58 78° NE 04:05:58 78° NE 04:11:48 10° N
Cosmos 2333 Rocket 3.1 04:02:53 10° N 04:08:24 48° ENE 04:13:50 10° SE
Cosmos 1727 Rocket 3.9 04:18:50 60° S 04:20:04 87° E 04:26:24 10° N
Cosmos 923 Rocket 4.1 04:24:26 10° NNW 04:29:47 75° ENE 04:35:07 10° SSE
DELTA 2 R/B (1) 3.4 04:30:56 73° SSW 04:31:17 77° SSE 04:36:51 10° ENE
Meteor 2-4 Rocket 4.2 04:26:47 14° S 04:31:38 61° E 04:37:27 10° NNE
CZ-4B R/B 3.1 04:27:32 10° NNE 04:32:58 90° NNW 04:34:21 53° SSW
Cosmos 2237 Rocket 2.4 04:30:14 10° NNW 04:35:51 68° ENE 04:41:25 10° SSE
NOSS 3-2 (A) 4.1 04:28:42 10° NNW 04:36:23 81° ENE 04:44:32 10° SSE
Hubble Space Telescope 2.5 04:41:26 23° SSE 04:41:26 23° SSE 04:43:38 10° SE
USA 238 DEB 4.4 04:43:16 34° SSW 04:43:16 34° SSW 04:47:49 10° S
USA 238 4.3 04:43:14 35° SSW 04:43:14 35° SSW 04:47:56 10° S
Okean-O 3.7 04:38:09 10° NNE 04:42:25 45° E 04:46:39 10° S
Meteor 1-13 Rocket 4.3 04:42:40 55° W 04:43:02 56° W 04:48:43 10° N
CZ-3A R/B 4.2 04:39:19 25° SW 04:43:33 31° S 04:47:56 10° ESE
RESURS DK-1 2.7 04:46:25 51° NNW 04:46:25 51° NNW 04:49:45 10° NNE
ATLAS 5 CENTAUR R/B 2.9 04:39:40 10° NNW 04:45:46 63° ENE 04:52:14 10° SE
OTV 4 2.6 04:47:38 25° ENE 04:47:38 25° ENE 04:49:02 10° E
Cosmos 1898 Rocket 4.1 04:43:48 11° S 04:48:44 57° ESE 04:53:56 10° NNE
Cosmos 1980 3.6 04:43:38 10° NNW 04:49:20 84° WSW 04:55:00 10° SSE
ISS -0.8 04:51:54 14° SSE 04:51:54 14° SSE 04:52:29 10° SSE
Cosmos 2058 Rocket 4.4 04:46:11 10° N 04:50:18 40° E 04:54:24 10° SSE
USA 215 3.9 04:47:03 10° S 04:52:18 33° SW 04:52:18 33° SW
Cosmos 1153 Rocket 4.4 04:46:38 10° N 04:52:58 75° W 04:59:20 10° S
Gbstr 26 Del rocket 4.4 04:48:23 19° NW 04:54:15 81° SW 05:02:25 10° SE
SL-16 R/B 3.5 04:49:19 10° N 04:54:40 40° ENE 04:59:57 10° SE
Cosmos 1346 Rocket 2.6 04:56:50 60° SSW 04:57:28 79° W 05:01:27 10° N
Cosmos 1605 Rocket 4.2 04:52:29 10° NNW 04:58:15 43° W 05:04:06 10° SSW
NOSS 0 Rocket 3.9 04:54:51 10° NNW 05:00:55 56° WSW 05:06:58 10° S
ADEOS II 2.1 04:56:53 10° NNE 05:02:11 83° ESE 05:07:26 10° S
CZ-4C R/B 3.7 05:03:02 29° WSW 05:03:02 29° WSW 05:09:07 10° SSW
Cosmos 2227 Rocket 2.8 05:03:27 33° WNW 05:04:05 34° WNW 05:09:13 10° N
ASTRO F (AKARI) 4.3 05:01:03 10° SSE 05:04:10 77° ENE 05:07:21 10° N
Cosmos 1937 Rocket 4.1 04:59:21 10° S 05:04:24 56° ESE 05:09:32 10° NNE
Meteor PRIRODA 3.8 05:02:39 10° NNE 05:06:23 72° E 05:10:04 10° S
Lacrosse 5 2.9 05:08:53 27° WNW 05:09:46 28° NW 05:14:08 10° NNE
Cosmos 1025 Rocket 3.8 05:13:42 31° WNW 05:13:42 31° WNW 05:17:15 10° NNW
Cosmos 2297 Rocket 2.7 05:11:41 30° WSW 05:13:36 40° WNW 05:18:54 10° N
NOSS 3-2 (C) 4.0 05:05:59 10° NW 05:13:41 75° WSW 05:21:49 10° SSE
CENTAUR R/B 4.4 05:08:02 10° NNW 05:15:21 39° NE 05:23:00 10° ESE
Cosmos 2219 Rocket 2.8 05:10:33 10° NW 05:15:29 31° WSW 05:20:24 10° SSW
Delta 142 4.1 05:14:57 30° SW 05:16:33 41° S 05:20:27 10° ESE
Okean O Rocket 3.3 05:13:57 10° NNW 05:15:59 18° NW 05:15:59 18° NW
ADEOS Rocket 3.4 05:12:14 10° N 05:19:08 54° WNW 05:25:19 10° SSW
Cosmos 1626 Rocket 4.3 05:17:06 10° S 05:21:23 54° E 05:25:39 10° NNE
Cosmos 2112 Rocket 4.1 05:18:00 10° NNW 05:23:07 51° WSW 05:28:10 10° S
NOSS 2-2 (C) 4.1 05:19:40 10° SSW 05:23:38 55° ESE 05:27:56 10° NE
NOSS 2-2 (E) 3.8 05:21:43 10° SSW 05:25:44 67° ESE 05:30:12 10° NE
Tiangong 1 3.1 05:25:06 15° NNW 05:26:02 17° N 05:28:11 10° NE
CZ-4B R/B 4.4 05:23:10 10° NNW 05:26:33 22° WNW 05:26:45 22° WNW
Cosmos 1680 Rocket 3.9 05:23:11 10° NW 05:28:02 38° W 05:32:49 10° SSW
Cosmos 1606 Rocket 3.9 05:24:20 10° NNW 05:28:23 38° W 05:32:23 10° SSW
Cosmos 2061 Rocket 4.0 05:22:45 10° NNW 05:29:02 69° W 05:35:21 10° S
Cosmos 292 Rocket 3.7 05:25:44 10° NNW 05:30:35 71° WSW 05:35:24 10° S
Meteor 2-15 Rocket 4.4 05:25:06 10° S 05:31:11 88° E 05:37:16 10° N
Cosmos 1802 Rocket 3.9 05:28:13 10° N 05:34:20 70° W 05:40:25 10° S
Cosmos 2100 Rocket 4.1 05:29:21 10° NNW 05:35:23 53° W 05:41:28 10° SSW
Meteor 1-15 Rocket 4.2 05:30:27 10° NNW 05:35:57 64° W 05:41:30 10° S
Delta 2 Rocket 3.1 05:34:00 21° WNW 05:36:21 68° N 05:39:48 10° E
Okean 2 4.3 05:35:48 15° SW 05:38:28 28° WNW 05:42:04 10° NNW
Cosmos 1726 Rocket 4.1 05:35:50 10° NNW 05:39:48 34° W 05:43:43 10° SSW
Cosmos 2298 Rocket 4.5 05:37:05 10° SW 05:42:01 40° WNW 05:47:00 10° N
Meteor 1-31 Rocket 2.8 05:38:40 10° N 05:42:31 60° WNW 05:46:23 10° SSW
Cosmos 1602 Rocket 3.5 05:39:36 10° S 05:44:03 78° W 05:48:30 10° N
OAO 2 Rocket 3.9 05:39:56 13° SW 05:44:33 58° SSE 05:49:47 10° E
USA 129 1.5 05:43:36 10° S 05:45:38 54° W 05:47:33 10° NNW
BREEZE-M DEB (TANK) 4.2 05:36:45 10° NW 05:47:16 44° NNE 05:50:43 10° E
Thor Agena Rocket 4.3 05:44:18 10° SSW 05:48:54 30° W 05:53:31 10° NW
Cosmos 1725 Rocket 4.1 05:42:35 10° N 05:48:55 83° E 05:55:10 10° S
Aureole 2 Rocket 2.2 05:47:25 10° NNW 05:50:50 89° WSW 05:53:55 10° SSE
Cosmos 2333 Rocket 3.4 05:48:20 10° WNW 05:52:12 19° W 05:56:01 10° SW
SL-24 R/B 3.8 05:51:17 10° N 05:55:35 84° WNW 05:59:24 10° SSW
Genesis I 3.4 05:51:49 10° SSW 05:55:47 79° ESE 05:59:47 10° NNE
Cosmos 1515 4.1 06:02:39 10° SSW 06:06:18 42° W 06:09:57 10° N
BREEZE-M DEB (TANK) 3.7 06:04:12 10° NNW 06:06:45 38° NE 06:11:22 10° ESE
Cosmos 2098 Rocket 3.6 06:04:52 10° NNW 06:08:38 38° W 06:13:20 10° SSW
CZ-4 R/B 4.0 06:05:30 10° NE 06:08:53 27° E 06:12:19 10° SSE
Cosmos 990 Rocket 4.3 06:04:35 10° SW 06:09:35 45° WNW 06:14:37 10° N
Cosmos 972 Rocket 4.3 06:05:16 10° SSW 06:10:28 58° WNW 06:16:19 10° N
Cosmos 2016 Rocket 4.4 06:06:32 10° NNW 06:12:21 40° W 06:18:06 10° SSW
